HORIZONS 2

Last updated on Tue Mar 22 2022 00:02:42 GMT+0000 (Coordinated Universal Time)

1 32388U 07063B 22080.47549413 -.00000182 00000+0 00000+0 0 9999 2 32388 0.0141 177.8288 0002943 188.9166 68.2423 1.00270211 52354

Satellite not in orbit

HORIZONS 2